Regional Weather Roundup
Issued by NWS

Home | Current Version | Previous Version | Text Only | Print | Product List | Glossary Off
Versions: 1 2 3 4 5 6 7 8 9 10 11 12 13 14 15 16 17 18 19 20 21 22 23 24 25 26 27 28 29 30 31 32 33 34 35 36 37 38 39 40 41 42 43 44 45 46 47 48 49 50

055
ASUS43 KOAX 260110
RWRNE

WEATHER ROUNDUP FOR NEBRASKA
NATIONAL WEATHER SERVICE OMAHA NE
800 PM CDT SAT MAR 25 2017

NOTES: SATELLITE DATA IS BEING USED TO AUGMENT CLOUD COVER ABOVE
       12000 FEET.
       "FAIR" INDICATES FEW OR NO CLOUDS BELOW 12,000 FEET WITH NO
       SIGNIFICANT WEATHER AND/OR OBSTRUCTIONS TO VISIBILITY.

  * THESE STATIONS DO NOT REPORT WEATHER SUCH AS RAIN...SNOW OR FOG.

NEZ001>004-019>022-054>056-260200-
NEBRASKA PANHANDLE

CITY           SKY/WX    TMP DP  RH WIND       PRES   REMARKS
SCOTTSBLUFF    CLOUDY    60  32  34 SE8       29.81R
ALLIANCE       CLOUDY    55  31  39 SE9       29.82F
CHADRON        CLOUDY    59  39  47 SE5       29.78F
KIMBALL        CLOUDY    54  34  46 SE8       29.86S
SIDNEY         CLOUDY    52  33  48 SE8       29.86F
$$

NEZ057>060-069>072-079>082-260200-
SOUTHWEST NEBRASKA

CITY           SKY/WX    TMP DP  RH WIND       PRES   REMARKS
NORTH PLATTE   CLOUDY    52  41  66 SE12      29.89R
IMPERIAL       CLOUDY    54  28  36 SE3       29.88S
LEXINGTON      CLOUDY    45  40  83 E7        29.92S
MCCOOK         CLOUDY    50  43  77 E13       29.90R
OGALLALA       CLOUDY    56  29  36 SE5       29.87S
$$

NEZ005>010-023>029-035>040-094-260200-
NORTH CENTRAL NEBRASKA

CITY           SKY/WX    TMP DP  RH WIND       PRES   REMARKS
VALENTINE      CLEAR     53  30  41 SE13      29.87R
AINSWORTH      CLEAR     46  40  80 E10       29.90S
BROKEN BOW     CLOUDY    46  40  79 E8        29.91S
O`NEILL        CLOUDY    39  38  97 E8        29.95S FOG     WCI  34
ORD            CLOUDY    40  38  93 NE6       29.93S FOG
THEDFORD       CLOUDY    53  37  54 SE9       29.89S
$$

NEZ041-046>049-061>064-073>077-083>087-260200-
SOUTH CENTRAL NEBRASKA

CITY           SKY/WX    TMP DP  RH WIND       PRES   REMARKS
GRAND ISLAND   CLOUDY    39  39 100 NE9       29.94S FOG     WCI  33
AURORA         CLOUDY    38  38 100 NE12      29.94S FOG     WCI  31
HASTINGS       CLOUDY    40  38  93 NE10      29.94R WCI  33
HEBRON         CLOUDY    40  38  95 N9        29.95R FOG     WCI  34
HOLDREGE       CLOUDY    42  40  91 NE5       29.92S
KEARNEY *      CLOUDY    43  37  81 NE7       29.94S
YORK           FOG       39  39 100 NE12      29.95S VSB 1   WCI  32
$$

NEZ011>018-030>034-042>045-260200-
NORTHEAST NEBRASKA

CITY           SKY/WX    TMP DP  RH WIND       PRES   REMARKS
NORFOLK        CLOUDY    39  37  92 NE7       29.95S FOG     WCI  34
ALBION         CLOUDY    40  38  91 NE7       29.95R FOG
BLAIR          CLOUDY    40  38  93 N8        29.93S WCI  35
FREMONT        CLOUDY    40  40 100 N5        29.96R FOG
TEKAMAH        CLOUDY    41  38  89 NE12      29.96R
WAYNE          CLOUDY    39  39  99 NE7       29.97R FOG     WCI  34
$$

NEZ050>053-065>068-078-088>093-260200-
SOUTHEAST NEBRASKA

CITY           SKY/WX    TMP DP  RH WIND       PRES   REMARKS
LINCOLN        LGT RAIN  41  39  93 N12       29.95S
OMAHA EPPLEY   DRIZZLE   42  37  82 NE10      29.93F FOG
BEATRICE       CLOUDY    41  40  96 N8        29.93S
FALLS CITY     CLOUDY    43  41  93 N7        29.91R
NEBRASKA CITY  CLOUDY    41  41 100 N10       29.92S FOG
PLATTSMOUTH    CLOUDY    41  38  91 N6        29.92S
$$

NEZ044-045-051>053-067-260200-
OMAHA AREA

CITY           SKY/WX    TMP DP  RH WIND       PRES   REMARKS
OMAHA EPPLEY   DRIZZLE   42  37  82 NE10      29.93F FOG
BLAIR          CLOUDY    40  38  93 N8        29.93S WCI  35
FREMONT        CLOUDY    40  40 100 N5        29.96R FOG
MILLARD        CLOUDY    43  41  92 N3        29.94S
OFFUTT AFB     CLOUDY    41  39  93 N6        29.93R
PLATTSMOUTH    CLOUDY    41  38  91 N6        29.92S
WAHOO          CLOUDY    40  38  93 N7        29.95S
$$




USA.gov is the U.S. government's official web portal to all federal, state and local government web resources and services.